[[{"header":{"parameterUnit":"m.s-1","parameterCategory":1,"la1":30.2991,"la2":30.254,"lo1":-89.0895,"lo2":-89.0444,"dy":0.0017,"dx":0.0017,"nx":28,"ny":28,"refTime":"2023-11-10T03:00:00:Z","depth":0,"parameterNumber":2,"parameterNumberName":"U-component_of_WINDS"},"data":[0,0,0,0,0,0,0,0,0,0,0,0,0,0,0,0,0,0,0,0,0,0,0,0,0,0,0,0,0,0,0,0,0,0,0,0,0,0,0,0,0,0,0,0,0,0,0,0,0,0,0,0,0,0,0,0,0,0,-1.4732,-1.4732,0,-1.4808,-1.4809,-1.4809,-1.477,-1.4768,-1.4766,-1.4764,-1.4845,-1.4849,-1.4853,0,0,0,0,0,0,0,0,0,0,0,0,0,-1.4554,-1.4557,-1.4731,-1.4732,-1.4733,-1.4808,-1.4809,-1.481,-1.477,-1.4767,-1.4765,-1.4763,-1.4844,-1.4849,-1.4854,0,0,0,0,0,0,0,0,0,0,0,0,0,-1.4631,-1.4559,-1.4731,-1.4722,-1.4722,-1.4807,-1.4809,-1.481,-1.477,-1.4767,-1.4764,-1.4761,-1.4842,-1.4848,-1.4854,-1.4953,0,0,-1.4873,-1.4876,0,0,0,0,0,0,0,0,-1.4627,-1.4637,-1.4723,-1.4723,-1.4723,-1.4776,-1.4776,-1.4858,-1.4771,-1.4752,-1.4764,-1.476,-1.4825,-1.4832,-1.4853,-1.4957,-1.4961,-1.4873,-1.4877,-1.488,-1.4882,0,0,0,0,0,0,0,-1.4621,-1.4634,-1.4762,-1.4724,-1.4724,-1.4715,-1.4723,-1.4791,-1.4805,-1.4754,-1.4751,-1.476,-1.4824,-1.4848,-1.4855,-1.4962,-1.4873,-1.4879,-1.4883,-1.4885,-1.5151,-1.5155,0,0,0,0,0,0,-1.4616,-1.463,-1.4759,-1.4764,-1.4666,-1.4721,-1.4729,-1.4762,-1.4804,-1.4807,-1.4763,-1.4758,-1.4839,-1.4848,-1.4858,-1.4978,-1.488,-1.4886,-1.4889,-1.5148,-1.5152,-1.5156,0,0,0,0,0,0,-1.4612,-1.4628,-1.4756,-1.4696,-1.4712,-1.4727,-1.4764,-1.4765,-1.4788,-1.4811,-1.4814,-1.4784,-1.4837,-1.4849,-1.493,-1.498,-1.4888,-1.4894,-1.5144,-1.5149,-1.5154,-1.5217,0,0,0,0,0,0,-1.4607,-1.4627,-1.4664,-1.4697,-1.4715,-1.4827,-1.4767,-1.4769,-1.4799,-1.4793,-1.4831,-1.4835,-1.4835,-1.4921,-1.4936,-1.4987,-1.4899,-1.514,-1.5146,-1.5152,-1.5211,-1.5224,-1.5235,0,0,0,0,0,-1.4601,-1.468,-1.4666,-1.4682,-1.4762,-1.4829,-1.484,-1.4838,-1.4803,-1.4841,-1.4855,-1.4834,-1.4971,-1.4929,-1.4946,-1.4999,-1.5137,-1.5145,-1.5152,-1.5206,-1.5222,-1.5235,0,0,0,0,0,0,-1.4654,-1.4684,-1.467,-1.4761,-1.4793,-1.4823,-1.4871,-1.4854,-1.4898,-1.4891,-1.4887,-1.4896,-1.498,-1.4997,-1.495,-1.5098,-1.5049,-1.506,-1.5084,-1.5099,-1.5111,-1.5106,-1.4904,0,0,0,0,0,-1.4676,-1.4727,-1.4751,-1.4829,-1.4846,-1.4856,-1.4885,-1.488,-1.4914,-1.4927,-1.4947,-1.4982,-1.5032,-1.5066,-1.5114,-1.5212,-1.5221,-1.5257,-1.5269,-1.5279,-1.529,-1.5343,-1.536,-1.5181,-1.5181,-1.5181,0,0,-1.4723,-1.4745,-1.4778,-1.484,-1.4865,-1.4919,-1.4867,-1.4927,-1.4968,-1.4937,-1.5014,-1.503,-1.5068,-1.5158,-1.5198,-1.5175,-1.534,-1.5289,-1.5296,-1.5302,-1.5353,-1.537,-1.5385,-1.5186,-1.5185,-1.5185,0,0,-1.4835,-1.4857,-1.4925,-1.495,-1.4986,-1.4992,-1.5008,-1.504,-1.505,-1.5127,-1.5105,-1.5153,-1.524,-1.5269,-1.5294,-1.5416,-1.5398,-1.5432,-1.5496,-1.5549,-1.5563,-1.5575,-1.562,-1.5636,-1.5442,-1.5442,-1.5442,0,-1.4889,-1.4969,-1.4962,-1.5024,-1.5052,-1.5024,-1.5094,-1.5119,-1.517,-1.519,-1.5162,-1.5271,-1.5295,-1.5391,-1.5421,-1.5442,-1.5462,-1.5429,-1.5561,-1.5574,-1.5585,-1.5628,-1.5645,-1.5446,-1.5445,-1.5445,-1.5445,0,-1.5034,-1.509,-1.514,-1.5189,-1.5223,-1.5288,-1.5292,-1.5327,-1.5319,-1.5327,-1.5407,-1.5433,-1.5487,-1.5508,-1.5501,-1.5604,-1.5588,-1.5561,-1.5512,-1.5606,-1.5647,-1.5663,-1.5451,-1.545,-1.5449,-1.5448,0,0,-1.5185,-1.5228,-1.5247,-1.5268,-1.5306,-1.5349,-1.5413,-1.5464,-1.5494,-1.553,-1.5584,-1.5658,-1.5632,-1.5662,-1.5657,-1.5703,-1.5799,-1.567,-1.5671,-1.5695,-1.5916,-1.5938,-1.5957,-1.5786,-1.5789,-1.5792,-1.5913,0,-1.5302,-1.5413,-1.5408,-1.5512,-1.5564,-1.5537,-1.5593,-1.5622,-1.5632,-1.5678,-1.5688,-1.5741,-1.5703,-1.572,-1.5764,-1.5778,-1.5844,-1.5769,-1.5839,-1.5841,-1.5833,-1.5978,-1.6002,-1.6115,-1.5929,-1.5931,-1.5933,0,-1.5454,-1.5493,-1.5602,-1.5632,-1.5653,-1.5703,-1.5749,-1.5793,-1.5826,-1.5829,-1.5861,-1.5849,-1.5914,-1.5862,-1.5952,-1.5902,-1.5929,-1.594,-1.5945,-1.5953,-1.5895,-1.5992,-1.6151,-1.6169,-1.5958,-1.5956,-1.5954,0,-1.5555,-1.5635,-1.5711,-1.573,-1.5766,-1.5802,-1.5819,-1.5848,-1.5879,-1.5919,-1.5939,-1.5986,-1.6013,-1.6051,-1.6052,-1.6013,-1.6144,-1.6091,-1.6151,-1.6151,-1.6182,-1.618,-1.6349,-1.6196,-1.6195,-1.6195,-1.6195,0,-1.5688,-1.5756,-1.5757,-1.5804,-1.5879,-1.5873,-1.5948,-1.5961,-1.5987,-1.6037,-1.6017,-1.6064,-1.6061,-1.611,-1.6111,-1.6187,-1.6198,-1.6204,-1.6204,-1.6208,-1.6207,-1.6228,-1.6221,-1.62,-1.6199,-1.6198,-1.6197,0,-1.5815,-1.5818,-1.5899,-1.5926,-1.5934,-1.5989,-1.6012,-1.6057,-1.6063,-1.6126,-1.6141,-1.6152,-1.6207,-1.6211,-1.6276,-1.6276,-1.6369,-1.6359,-1.6358,-1.6357,-1.6417,-1.6412,-1.6607,-1.6633,-1.646,-1.6462,-1.6463,0,-1.5901,-1.5952,-1.5984,-1.6015,-1.6033,-1.6084,-1.6115,-1.6109,-1.6143,-1.6183,-1.6224,-1.6276,-1.6319,-1.6409,-1.6423,-1.6473,-1.6465,-1.653,-1.6473,-1.6474,-1.6469,-1.6467,-1.6472,-1.6542,-1.6544,-1.6546,-1.6547,0,-1.6053,-1.6051,-1.6096,-1.6141,-1.6178,-1.6214,-1.6247,-1.6274,-1.6272,-1.6311,-1.6366,-1.6399,-1.6464,-1.6518,-1.6565,-1.6583,-1.6566,-1.6564,-1.6581,-1.6586,-1.6584,-1.6588,-1.6391,-1.6561,-1.6559,-1.6558,-1.6557,-1.6557,-1.6163,-1.6208,-1.6237,-1.6288,-1.6311,-1.6342,-1.6386,-1.6397,-1.6443,-1.6495,-1.6489,-1.6551,-1.6582,-1.6644,-1.6666,-1.6715,-1.6694,-1.6717,-1.6724,-1.6731,-1.6738,-1.6574,-1.6724,-1.6723,-1.6723,-1.6723,-1.6722,0,-1.6316,-1.6333,-1.6379,-1.6425,-1.6465,-1.6442,-1.6477,-1.6513,-1.6567,-1.6597,-1.6639,-1.6703,-1.6754,-1.6772,-1.6822,-1.6858,-1.6852,-1.6872,-1.6871,-1.6875,-1.6753,-1.6735,-1.6876,-1.6876,-1.6876,-1.6876,-1.6876,-1.6876,-1.6401,-1.6475,-1.6477,-1.6564,-1.658,-1.664,-1.6662,-1.6691,-1.6715,-1.6787,-1.6829,-1.684,-1.6865,-1.6917,-1.6963,-1.6967,-1.6988,-1.7012,-1.7013,-1.6899,-1.6884,-1.6869,-1.6852,-1.7016,-1.7016,-1.7131,-1.7132,-1.7133]},{"header":{"parameterUnit":"m.s-1","parameterCategory":1,"la1":30.2991,"la2":30.254,"lo1":-89.0895,"lo2":-89.0444,"dy":0.0017,"dx":0.0017,"nx":28,"ny":28,"refTime":"2023-11-10T03:00:00:Z","depth":0,"parameterNumber":3,"parameterNumberName":"V-component_of_WINDS"},"data":[0,0,0,0,0,0,0,0,0,0,0,0,0,0,0,0,0,0,0,0,0,0,0,0,0,0,0,0,0,0,0,0,0,0,0,0,0,0,0,0,0,0,0,0,0,0,0,0,0,0,0,0,0,0,0,0,0,0,-2.4736,-2.4735,0,-2.4658,-2.4657,-2.4656,-2.4567,-2.4566,-2.4564,-2.4563,-2.4482,-2.4481,-2.448,0,0,0,0,0,0,0,0,0,0,0,0,0,-2.4806,-2.4806,-2.4736,-2.4735,-2.4734,-2.4658,-2.4657,-2.4656,-2.4567,-2.4566,-2.4564,-2.4563,-2.4482,-2.4481,-2.448,0,0,0,0,0,0,0,0,0,0,0,0,0,-2.4757,-2.4805,-2.4736,-2.4681,-2.4675,-2.4658,-2.4657,-2.4656,-2.4568,-2.4566,-2.4564,-2.4562,-2.4482,-2.4481,-2.4479,-2.451,0,0,-2.4475,-2.4474,0,0,0,0,0,0,0,0,-2.476,-2.4754,-2.469,-2.4685,-2.4678,-2.462,-2.4652,-2.4607,-2.4568,-2.4608,-2.4563,-2.4561,-2.4529,-2.4524,-2.4513,-2.4506,-2.4503,-2.4475,-2.4474,-2.4474,-2.4473,0,0,0,0,0,0,0,-2.4763,-2.4757,-2.4705,-2.4689,-2.4682,-2.4659,-2.465,-2.4643,-2.4581,-2.4605,-2.4598,-2.459,-2.4526,-2.4515,-2.4511,-2.4502,-2.4475,-2.4474,-2.4473,-2.4472,-2.4513,-2.4515,0,0,0,0,0,0,-2.4775,-2.4761,-2.4708,-2.4703,-2.4715,-2.4659,-2.4649,-2.4641,-2.4581,-2.457,-2.4592,-2.4586,-2.4518,-2.4513,-2.4508,-2.4538,-2.4474,-2.4472,-2.4471,-2.4512,-2.4514,-2.4516,0,0,0,0,0,0,-2.4777,-2.4772,-2.4711,-2.473,-2.472,-2.466,-2.4652,-2.464,-2.463,-2.4571,-2.4559,-2.4593,-2.4517,-2.451,-2.451,-2.4534,-2.4472,-2.447,-2.4509,-2.4512,-2.4515,-2.4601,0,0,0,0,0,0,-2.478,-2.4773,-2.4785,-2.4731,-2.472,-2.4716,-2.4653,-2.464,-2.4628,-2.462,-2.4569,-2.4558,-2.4515,-2.4512,-2.4508,-2.4531,-2.4469,-2.4507,-2.4511,-2.4514,-2.4595,-2.4606,-2.4615,0,0,0,0,0,-2.4783,-2.4812,-2.4786,-2.478,-2.4733,-2.4717,-2.4711,-2.466,-2.463,-2.4641,-2.4603,-2.456,-2.4532,-2.4513,-2.4508,-2.453,-2.4505,-2.451,-2.4514,-2.4591,-2.4604,-2.4615,0,0,0,0,0,0,-2.487,-2.4804,-2.4774,-2.4787,-2.4759,-2.4702,-2.4714,-2.4676,-2.4655,-2.4648,-2.4586,-2.4575,-2.4582,-2.4556,-2.4536,-2.4556,-2.4512,-2.4516,-2.4573,-2.4585,-2.4594,-2.46,-2.4468,0,0,0,0,0,-2.4891,-2.4884,-2.4826,-2.4843,-2.483,-2.4775,-2.4766,-2.473,-2.4697,-2.4684,-2.4646,-2.4616,-2.46,-2.4591,-2.4573,-2.4591,-2.4578,-2.4604,-2.4614,-2.4622,-2.4626,-2.4631,-2.4641,-2.453,-2.453,-2.453,0,0,-2.4934,-2.4897,-2.4896,-2.486,-2.4833,-2.4826,-2.4765,-2.4761,-2.4755,-2.4683,-2.4681,-2.4652,-2.4614,-2.4623,-2.4625,-2.4601,-2.4653,-2.4628,-2.4635,-2.4634,-2.4637,-2.4647,-2.4657,-2.4533,-2.4533,-2.4532,0,0,-2.5008,-2.498,-2.499,-2.4965,-2.4925,-2.4888,-2.4891,-2.484,-2.4818,-2.4815,-2.4761,-2.4752,-2.4726,-2.4701,-2.4684,-2.4748,-2.4707,-2.4744,-2.4795,-2.4801,-2.481,-2.4817,-2.4838,-2.4847,-2.4747,-2.4748,-2.4748,0,-2.5066,-2.5054,-2.5,-2.4999,-2.4984,-2.4919,-2.4928,-2.4906,-2.4863,-2.4853,-2.4828,-2.4793,-2.4763,-2.4764,-2.4779,-2.4769,-2.4768,-2.4749,-2.4813,-2.482,-2.4826,-2.4845,-2.4854,-2.4752,-2.4752,-2.4751,-2.4751,0,-2.5127,-2.5119,-2.5132,-2.5092,-2.5078,-2.5083,-2.5028,-2.5021,-2.4985,-2.495,-2.4947,-2.4908,-2.488,-2.4878,-2.4844,-2.4873,-2.486,-2.4825,-2.478,-2.4842,-2.4859,-2.4866,-2.4759,-2.4757,-2.4756,-2.4755,0,0,-2.5254,-2.5184,-2.5189,-2.5169,-2.5121,-2.5113,-2.5114,-2.5087,-2.5081,-2.5053,-2.5051,-2.503,-2.4997,-2.4978,-2.494,-2.4945,-2.4996,-2.4909,-2.4907,-2.4925,-2.5024,-2.505,-2.5059,-2.4968,-2.4969,-2.497,-2.5026,0,-2.5319,-2.5316,-2.5267,-2.5277,-2.5269,-2.5207,-2.5207,-2.5176,-2.5143,-2.513,-2.5093,-2.5079,-2.5037,-2.5025,-2.5028,-2.4989,-2.5014,-2.4984,-2.4964,-2.4964,-2.4975,-2.5068,-2.5096,-2.5151,-2.5033,-2.5034,-2.5035,0,-2.5394,-2.537,-2.538,-2.533,-2.5324,-2.5325,-2.5296,-2.5285,-2.5248,-2.5224,-2.5203,-2.5159,-2.5154,-2.5112,-2.5103,-2.5084,-2.5073,-2.5052,-2.5053,-2.5048,-2.5003,-2.5065,-2.5167,-2.5175,-2.5045,-2.5044,-2.5043,0,-2.5484,-2.5454,-2.5456,-2.5441,-2.5383,-2.5385,-2.536,-2.5322,-2.5308,-2.5283,-2.5273,-2.5247,-2.5232,-2.5212,-2.5162,-2.5137,-2.5159,-2.5113,-2.5137,-2.5138,-2.5143,-2.5144,-2.5244,-2.5138,-2.5138,-2.5138,-2.5138,0,-2.556,-2.5568,-2.5495,-2.5497,-2.5503,-2.5446,-2.5454,-2.5424,-2.539,-2.5382,-2.5327,-2.5321,-2.5256,-2.5242,-2.5203,-2.5201,-2.5195,-2.5174,-2.5163,-2.5178,-2.5181,-2.5169,-2.5163,-2.514,-2.514,-2.5139,-2.5139,0,-2.5661,-2.5613,-2.5611,-2.5556,-2.5542,-2.5549,-2.5501,-2.5499,-2.5462,-2.5454,-2.5449,-2.5391,-2.5372,-2.532,-2.5288,-2.5261,-2.5269,-2.525,-2.5282,-2.5275,-2.5301,-2.5299,-2.5397,-2.5406,-2.5296,-2.5297,-2.5298,0,-2.5713,-2.5717,-2.5663,-2.5654,-2.5632,-2.562,-2.5606,-2.5549,-2.5537,-2.5495,-2.5497,-2.5474,-2.5452,-2.5424,-2.5378,-2.5353,-2.5331,-2.5368,-2.5327,-2.5342,-2.533,-2.533,-2.5329,-2.5376,-2.5378,-2.5379,-2.538,0,-2.5809,-2.5784,-2.5767,-2.5741,-2.5726,-2.5702,-2.5675,-2.5671,-2.5608,-2.5596,-2.5576,-2.556,-2.5526,-2.5503,-2.547,-2.5443,-2.54,-2.5393,-2.5397,-2.5412,-2.543,-2.5419,-2.5305,-2.5391,-2.539,-2.5389,-2.5388,-2.5388,-2.5885,-2.5886,-2.5847,-2.5829,-2.5803,-2.5779,-2.5774,-2.5737,-2.572,-2.5689,-2.5656,-2.5639,-2.56,-2.5552,-2.5528,-2.5512,-2.549,-2.5496,-2.5498,-2.55,-2.5506,-2.5433,-2.5506,-2.5506,-2.5505,-2.5505,-2.5505,0,-2.5977,-2.5949,-2.5933,-2.5897,-2.5882,-2.5845,-2.5813,-2.5803,-2.5789,-2.5757,-2.5736,-2.5712,-2.5689,-2.5642,-2.5614,-2.5611,-2.559,-2.5605,-2.5604,-2.5598,-2.5528,-2.5527,-2.5622,-2.5622,-2.5622,-2.5622,-2.5622,-2.5622,-2.6023,-2.6022,-2.5993,-2.5977,-2.5949,-2.5933,-2.5917,-2.5894,-2.5868,-2.5844,-2.5825,-2.5794,-2.5755,-2.5724,-2.57,-2.5687,-2.5678,-2.5699,-2.5679,-2.5614,-2.5603,-2.5593,-2.5591,-2.5698,-2.5698,-2.575,-2.5751,-2.5751]}]]